Time,TemperatureF,DewpointF,PressureIn,WindDirection,WindDirectionDegrees,WindSpeedMPH,WindSpeedGustMPH,Humidity,HourlyPrecipIn,Conditions,Clouds,dailyrainin,SoftwareType,DateUTC
2013-03-10 00:03:00,38.5,34.4,29.79,NNW,338,0.7,3.1,85,0.00,,,0.00,pywws,2013-03-10 00:03:00,
2013-03-10 00:09:00,38.5,34.4,29.79,NNW,338,0.7,3.1,85,0.00,,,0.00,pywws,2013-03-10 00:09:00,
2013-03-10 00:14:00,38.1,34.3,29.79,South,180,0.0,0.7,86,0.00,,,0.00,pywws,2013-03-10 00:14:00,
2013-03-10 00:19:00,38.1,34.6,29.79,North,0,0.7,3.8,87,0.00,,,0.00,pywws,2013-03-10 00:19:00,
2013-03-10 00:25:00,38.1,34.3,29.80,NE,45,1.6,3.8,86,0.00,,,0.00,pywws,2013-03-10 00:25:00,
2013-03-10 00:30:00,38.7,35.1,29.80,NE,45,1.6,3.8,87,0.00,,,0.00,pywws,2013-03-10 00:30:00,
2013-03-10 00:35:00,38.3,34.8,29.80,NE,45,0.7,3.1,87,0.00,,,0.00,pywws,2013-03-10 00:35:00,
2013-03-10 00:40:00,38.3,34.5,29.80,North,0,0.7,2.2,86,0.00,,,0.00,pywws,2013-03-10 00:40:00,
2013-03-10 00:45:00,38.3,34.5,29.80,North,0,0.0,1.6,86,0.00,,,0.00,pywws,2013-03-10 00:45:00,
2013-03-10 00:50:00,38.1,33.7,29.80,NE,45,2.2,6.0,84,0.00,,,0.00,pywws,2013-03-10 00:50:00,
2013-03-10 00:55:00,38.1,33.7,29.80,NE,45,3.8,6.0,84,0.00,,,0.00,pywws,2013-03-10 00:55:00,
2013-03-10 01:01:00,38.1,33.7,29.80,NE,45,2.2,6.9,84,0.00,,,0.00,pywws,2013-03-10 01:01:00,
2013-03-10 01:06:00,38.1,33.7,29.80,NE,45,2.2,6.9,84,0.00,,,0.00,pywws,2013-03-10 01:06:00,
2013-03-10 01:11:00,37.9,33.8,29.80,NW,315,1.6,3.8,85,0.00,,,0.00,pywws,2013-03-10 01:11:00,
2013-03-10 01:16:00,37.9,33.8,29.80,East,90,0.7,3.1,85,0.00,,,0.00,pywws,2013-03-10 01:16:00,
2013-03-10 01:21:00,37.9,33.8,29.80,NE,45,1.6,6.0,85,0.00,,,0.00,pywws,2013-03-10 01:21:00,
2013-03-10 01:26:00,37.8,33.7,29.80,NE,45,1.6,3.1,85,0.00,,,0.00,pywws,2013-03-10 01:26:00,
2013-03-10 01:31:00,37.8,33.7,29.80,NE,45,1.6,5.4,85,0.00,,,0.00,pywws,2013-03-10 01:31:00,
2013-03-10 01:37:00,37.6,33.5,29.80,NE,45,3.1,8.3,85,0.00,,,0.00,pywws,2013-03-10 01:37:00,
2013-03-10 01:42:00,37.6,33.5,29.80,NE,45,1.6,7.6,85,0.00,,,0.00,pywws,2013-03-10 01:42:00,
2013-03-10 01:47:00,37.6,33.5,29.80,NE,45,0.0,1.6,85,0.00,,,0.00,pywws,2013-03-10 01:47:00,
2013-03-10 01:52:00,37.4,33.3,29.80,NE,45,2.2,5.4,85,0.00,,,0.00,pywws,2013-03-10 01:52:00,
2013-03-10 01:57:00,37.4,33.3,29.80,NW,315,0.7,3.1,85,0.00,,,0.00,pywws,2013-03-10 01:57:00,
2013-03-10 02:02:00,37.4,33.3,29.80,NE,45,3.1,6.0,85,0.00,,,0.00,pywws,2013-03-10 02:02:00,
2013-03-10 02:07:00,37.6,33.5,29.80,NW,315,0.7,3.8,85,0.00,,,0.00,pywws,2013-03-10 02:07:00,
2013-03-10 02:13:00,37.4,33.0,29.79,NW,315,2.2,6.0,84,0.00,,,0.00,pywws,2013-03-10 02:13:00,
2013-03-10 02:18:00,37.4,33.0,29.79,NE,45,0.7,3.1,84,0.00,,,0.00,pywws,2013-03-10 02:18:00,
2013-03-10 02:23:00,37.4,33.3,29.79,NE,45,1.6,4.5,85,0.00,,,0.00,pywws,2013-03-10 02:23:00,
2013-03-10 02:29:00,37.4,33.3,29.79,East,90,3.1,4.5,85,0.00,,,0.00,pywws,2013-03-10 02:29:00,
2013-03-10 02:34:00,37.4,33.3,29.79,West,270,0.0,1.6,85,0.00,,,0.00,pywws,2013-03-10 02:34:00,
2013-03-10 02:39:00,37.4,33.3,29.79,NE,45,0.0,3.1,85,0.00,,,0.00,pywws,2013-03-10 02:39:00,
2013-03-10 02:44:00,37.4,33.3,29.79,East,90,0.7,2.2,85,0.00,,,0.00,pywws,2013-03-10 02:44:00,
2013-03-10 02:49:00,37.4,33.6,29.79,SE,135,0.0,2.2,86,0.00,,,0.00,pywws,2013-03-10 02:49:00,
2013-03-10 02:54:00,37.2,33.7,29.79,NNW,338,0.7,3.1,87,0.00,,,0.00,pywws,2013-03-10 02:54:00,
2013-03-10 03:00:00,37.2,33.7,29.79,East,90,0.7,2.2,87,0.00,,,0.00,pywws,2013-03-10 03:00:00,
2013-03-10 03:05:00,37.2,33.7,29.78,NE,45,0.7,2.2,87,0.00,,,0.00,pywws,2013-03-10 03:05:00,
2013-03-10 03:10:00,37.2,33.7,29.78,NE,45,1.6,3.1,87,0.00,,,0.00,pywws,2013-03-10 03:10:00,
2013-03-10 03:15:00,37.2,33.7,29.78,North,0,0.7,1.6,87,0.00,,,0.00,pywws,2013-03-10 03:15:00,
2013-03-10 03:20:00,37.2,33.7,29.78,NE,45,0.7,3.8,87,0.00,,,0.00,pywws,2013-03-10 03:20:00,
2013-03-10 03:25:00,37.2,33.7,29.78,NE,45,0.7,4.5,87,0.00,,,0.00,pywws,2013-03-10 03:25:00,
2013-03-10 03:30:00,37.2,33.7,29.78,North,0,0.0,1.6,87,0.00,,,0.00,pywws,2013-03-10 03:30:00,
2013-03-10 03:36:00,37.2,33.7,29.78,NE,45,1.6,4.5,87,0.00,,,0.00,pywws,2013-03-10 03:36:00,
2013-03-10 03:41:00,37.2,33.7,29.78,NE,45,1.6,3.1,87,0.00,,,0.00,pywws,2013-03-10 03:41:00,
2013-03-10 03:46:00,37.2,33.4,29.78,NE,45,3.1,6.0,86,0.00,,,0.00,pywws,2013-03-10 03:46:00,
2013-03-10 03:51:00,37.2,33.4,29.78,East,90,0.7,2.2,86,0.00,,,0.00,pywws,2013-03-10 03:51:00,
2013-03-10 03:57:00,37.2,33.4,29.78,ENE,68,0.7,3.1,86,0.00,,,0.00,pywws,2013-03-10 03:57:00,
2013-03-10 04:02:00,37.2,33.4,29.78,NW,315,2.2,5.4,86,0.00,,,0.00,pywws,2013-03-10 04:02:00,
2013-03-10 04:07:00,37.2,33.4,29.78,North,0,0.0,1.6,86,0.00,,,0.00,pywws,2013-03-10 04:07:00,
2013-03-10 04:12:00,37.2,33.4,29.78,NNE,22,2.2,5.4,86,0.00,,,0.00,pywws,2013-03-10 04:12:00,
2013-03-10 04:17:00,37.0,33.2,29.78,NW,315,0.7,3.1,86,0.00,,,0.00,pywws,2013-03-10 04:17:00,
2013-03-10 04:22:00,37.0,33.5,29.78,NE,45,0.7,2.2,87,0.00,,,0.00,pywws,2013-03-10 04:22:00,
2013-03-10 04:27:00,37.0,33.2,29.78,NE,45,0.7,4.5,86,0.00,,,0.00,pywws,2013-03-10 04:27:00,
2013-03-10 04:33:00,37.0,33.5,29.78,NE,45,1.6,3.8,87,0.00,,,0.00,pywws,2013-03-10 04:33:00,
2013-03-10 04:38:00,37.0,33.2,29.78,NE,45,3.1,6.9,86,0.00,,,0.00,pywws,2013-03-10 04:38:00,
2013-03-10 04:43:00,37.0,33.2,29.78,North,0,2.2,5.4,86,0.00,,,0.00,pywws,2013-03-10 04:43:00,
2013-03-10 04:48:00,37.0,33.2,29.78,North,0,0.7,4.5,86,0.00,,,0.00,pywws,2013-03-10 04:48:00,
2013-03-10 04:53:00,37.0,33.5,29.78,NE,45,0.7,3.8,87,0.00,,,0.00,pywws,2013-03-10 04:53:00,
2013-03-10 04:58:00,37.0,33.5,29.78,North,0,0.0,3.1,87,0.00,,,0.00,pywws,2013-03-10 04:58:00,
2013-03-10 05:00:00,37.0,33.5,29.78,NW,315,2.2,4.5,87,0.00,,,0.00,pywws,2013-03-10 05:00:00,
2013-03-10 05:01:00,37.0,33.5,29.78,NW,315,2.2,4.5,87,0.00,,,0.00,pywws,2013-03-10 05:01:00,
2013-03-10 05:03:00,37.0,33.5,29.78,NW,315,2.2,4.5,87,0.00,,,0.00,pywws,2013-03-10 05:03:00,
2013-03-10 05:09:00,37.0,33.2,29.78,East,90,3.1,9.2,86,0.00,,,0.00,pywws,2013-03-10 05:09:00,
2013-03-10 05:14:00,37.0,33.2,29.78,SE,135,2.2,3.8,86,0.00,,,0.00,pywws,2013-03-10 05:14:00,
2013-03-10 05:19:00,37.0,33.2,29.78,East,90,2.2,4.5,86,0.00,,,0.00,pywws,2013-03-10 05:19:00,
2013-03-10 05:24:00,37.0,33.5,29.78,NE,45,1.6,3.8,87,0.00,,,0.00,pywws,2013-03-10 05:24:00,
2013-03-10 05:29:00,37.0,33.5,29.78,NE,45,0.0,2.2,87,0.00,,,0.00,pywws,2013-03-10 05:29:00,
2013-03-10 05:35:00,37.0,33.2,29.78,East,90,2.2,5.4,86,0.00,,,0.00,pywws,2013-03-10 05:35:00,
2013-03-10 05:40:00,37.0,33.2,29.78,NW,315,1.6,4.5,86,0.00,,,0.00,pywws,2013-03-10 05:40:00,
2013-03-10 05:45:00,37.0,33.2,29.79,NE,45,2.2,4.5,86,0.00,,,0.00,pywws,2013-03-10 05:45:00,
2013-03-10 05:50:00,37.0,33.2,29.78,East,90,0.7,3.1,86,0.00,,,0.00,pywws,2013-03-10 05:50:00,
2013-03-10 05:55:00,37.0,33.2,29.79,NE,45,3.1,5.4,86,0.00,,,0.00,pywws,2013-03-10 05:55:00,
2013-03-10 06:00:00,37.0,33.2,29.79,NE,45,0.7,3.1,86,0.00,,,0.00,pywws,2013-03-10 06:00:00,
2013-03-10 06:05:00,37.0,33.2,29.79,NE,45,0.7,3.1,86,0.00,,,0.00,pywws,2013-03-10 06:05:00,
2013-03-10 06:11:00,37.0,33.2,29.79,NE,45,1.6,3.8,86,0.00,,,0.00,pywws,2013-03-10 06:11:00,
2013-03-10 06:16:00,37.0,33.2,29.80,NE,45,2.2,4.5,86,0.00,,,0.00,pywws,2013-03-10 06:16:00,
2013-03-10 06:21:00,37.0,33.2,29.79,NE,45,1.6,3.1,86,0.00,,,0.00,pywws,2013-03-10 06:21:00,
2013-03-10 06:26:00,37.0,33.0,29.79,East,90,2.2,4.5,85,0.00,,,0.00,pywws,2013-03-10 06:26:00,
2013-03-10 06:32:00,37.0,33.0,29.79,ENE,68,3.1,5.4,85,0.00,,,0.00,pywws,2013-03-10 06:32:00,
2013-03-10 06:37:00,37.0,33.0,29.79,North,0,1.6,2.2,85,0.00,,,0.00,pywws,2013-03-10 06:37:00,
2013-03-10 06:43:00,37.0,32.7,29.79,North,0,1.6,3.8,84,0.00,,,0.00,pywws,2013-03-10 06:43:00,
2013-03-10 06:48:00,37.0,33.0,29.79,NE,45,2.2,5.4,85,0.00,,,0.00,pywws,2013-03-10 06:48:00,
2013-03-10 06:53:00,37.0,33.0,29.79,NE,45,3.8,6.9,85,0.00,,,0.00,pywws,2013-03-10 06:53:00,
2013-03-10 06:58:00,37.0,33.0,29.80,North,0,2.2,6.0,85,0.00,,,0.00,pywws,2013-03-10 06:58:00,
2013-03-10 07:03:00,37.0,33.0,29.80,NE,45,1.6,4.5,85,0.00,,,0.00,pywws,2013-03-10 07:03:00,
2013-03-10 07:09:00,37.0,33.0,29.79,North,0,1.6,4.5,85,0.00,,,0.00,pywws,2013-03-10 07:09:00,
2013-03-10 07:14:00,37.0,33.2,29.79,North,0,2.2,4.5,86,0.00,,,0.00,pywws,2013-03-10 07:14:00,
2013-03-10 07:19:00,37.0,33.2,29.79,NNE,22,2.2,4.5,86,0.00,,,0.00,pywws,2013-03-10 07:19:00,
2013-03-10 07:24:00,37.0,33.0,29.79,North,0,3.1,7.6,85,0.00,,,0.00,pywws,2013-03-10 07:24:00,
2013-03-10 07:29:00,37.2,33.1,29.80,NE,45,2.2,6.9,85,0.00,,,0.00,pywws,2013-03-10 07:29:00,
2013-03-10 07:34:00,37.2,33.1,29.80,NE,45,3.8,8.3,85,0.00,,,0.00,pywws,2013-03-10 07:34:00,
2013-03-10 07:39:00,37.2,33.1,29.80,East,90,0.7,3.1,85,0.00,,,0.00,pywws,2013-03-10 07:39:00,
2013-03-10 07:44:00,37.4,33.3,29.80,NE,45,2.2,6.0,85,0.00,,,0.00,pywws,2013-03-10 07:44:00,
2013-03-10 07:49:00,37.4,33.3,29.80,North,0,2.2,6.9,85,0.00,,,0.00,pywws,2013-03-10 07:49:00,
2013-03-10 07:54:00,37.4,33.0,29.80,East,90,2.2,3.8,84,0.00,,,0.00,pywws,2013-03-10 07:54:00,
2013-03-10 08:00:00,37.6,33.2,29.80,NE,45,2.2,6.0,84,0.00,,,0.00,pywws,2013-03-10 08:00:00,
2013-03-10 08:05:00,37.6,33.2,29.80,East,90,1.6,3.1,84,0.00,,,0.00,pywws,2013-03-10 08:05:00,
2013-03-10 08:10:00,37.8,33.4,29.80,NE,45,0.0,1.6,84,0.00,,,0.00,pywws,2013-03-10 08:10:00,
2013-03-10 08:15:00,37.8,33.4,29.80,NE,45,1.6,5.4,84,0.00,,,0.00,pywws,2013-03-10 08:15:00,
2013-03-10 08:20:00,37.8,33.4,29.80,NE,45,1.6,5.4,84,0.00,,,0.00,pywws,2013-03-10 08:20:00,
2013-03-10 08:25:00,37.8,33.4,29.80,North,0,0.7,2.2,84,0.00,,,0.00,pywws,2013-03-10 08:25:00,
2013-03-10 08:30:00,37.9,33.5,29.80,NE,45,1.6,5.4,84,0.00,,,0.00,pywws,2013-03-10 08:30:00,
2013-03-10 08:36:00,37.9,33.2,29.81,North,0,1.6,3.1,83,0.00,,,0.00,pywws,2013-03-10 08:36:00,
2013-03-10 08:41:00,37.9,33.2,29.80,North,0,3.1,6.0,83,0.00,,,0.00,pywws,2013-03-10 08:41:00,
2013-03-10 08:46:00,37.9,33.2,29.80,East,90,3.1,6.9,83,0.00,,,0.00,pywws,2013-03-10 08:46:00,
2013-03-10 08:51:00,37.8,33.1,29.81,NE,45,5.4,9.8,83,0.00,,,0.00,pywws,2013-03-10 08:51:00,
2013-03-10 08:56:00,37.9,33.2,29.80,North,0,1.6,4.5,83,0.00,,,0.00,pywws,2013-03-10 08:56:00,
2013-03-10 09:01:00,37.9,33.2,29.80,East,90,3.1,8.3,83,0.00,,,0.00,pywws,2013-03-10 09:01:00,
2013-03-10 09:06:00,37.9,33.2,29.80,East,90,3.1,8.3,83,0.00,,,0.00,pywws,2013-03-10 09:06:00,
2013-03-10 09:12:00,38.1,33.1,29.80,NE,45,3.1,7.6,82,0.00,,,0.00,pywws,2013-03-10 09:12:00,
2013-03-10 09:17:00,38.3,33.6,29.81,East,90,0.0,2.2,83,0.00,,,0.00,pywws,2013-03-10 09:17:00,
2013-03-10 09:22:00,38.7,33.6,29.81,NE,45,1.6,3.1,82,0.00,,,0.00,pywws,2013-03-10 09:22:00,
2013-03-10 09:27:00,38.3,33.0,29.80,North,0,3.8,6.9,81,0.00,,,0.00,pywws,2013-03-10 09:27:00,
2013-03-10 09:33:00,38.3,33.0,29.80,NE,45,3.1,5.4,81,0.00,,,0.00,pywws,2013-03-10 09:33:00,
2013-03-10 09:38:00,38.5,33.2,29.81,East,90,3.1,6.9,81,0.00,,,0.00,pywws,2013-03-10 09:38:00,
2013-03-10 09:43:00,38.7,33.3,29.81,NE,45,3.8,8.3,81,0.00,,,0.00,pywws,2013-03-10 09:43:00,
2013-03-10 09:49:00,38.7,33.3,29.81,North,0,3.8,7.6,81,0.00,,,0.00,pywws,2013-03-10 09:49:00,
2013-03-10 09:54:00,38.7,33.3,29.81,NE,45,3.8,6.9,81,0.00,,,0.00,pywws,2013-03-10 09:54:00,
2013-03-10 09:59:00,38.5,33.2,29.81,East,90,1.6,5.4,81,0.00,,,0.00,pywws,2013-03-10 09:59:00,
2013-03-10 10:04:00,38.5,33.2,29.82,East,90,1.6,5.4,81,0.00,,,0.00,pywws,2013-03-10 10:04:00,
2013-03-10 10:09:00,38.7,33.3,29.81,NE,45,3.1,8.3,81,0.00,,,0.00,pywws,2013-03-10 10:09:00,
2013-03-10 10:14:00,38.7,33.0,29.81,NNE,22,3.8,8.3,80,0.00,,,0.00,pywws,2013-03-10 10:14:00,
2013-03-10 10:19:00,38.7,33.0,29.81,NE,45,3.8,6.9,80,0.00,,,0.00,pywws,2013-03-10 10:19:00,
2013-03-10 10:24:00,38.5,32.9,29.81,ENE,68,5.4,8.3,80,0.00,,,0.00,pywws,2013-03-10 10:24:00,
2013-03-10 10:29:00,38.7,33.0,29.82,NE,45,3.1,6.9,80,0.00,,,0.00,pywws,2013-03-10 10:29:00,
2013-03-10 10:34:00,38.8,32.9,29.82,East,90,6.0,11.4,79,0.00,,,0.00,pywws,2013-03-10 10:34:00,
2013-03-10 10:39:00,38.7,33.0,29.82,North,0,3.8,8.3,80,0.00,,,0.00,pywws,2013-03-10 10:39:00,
2013-03-10 10:45:00,38.7,33.3,29.82,NE,45,4.5,8.3,81,0.00,,,0.00,pywws,2013-03-10 10:45:00,
2013-03-10 10:50:00,38.8,33.2,29.82,North,0,2.2,6.0,80,0.00,,,0.00,pywws,2013-03-10 10:50:00,
2013-03-10 10:55:00,38.8,33.2,29.82,North,0,2.2,5.4,80,0.00,,,0.00,pywws,2013-03-10 10:55:00,
2013-03-10 11:00:00,39.0,33.1,29.82,SW,225,3.1,6.9,79,0.00,,,0.00,pywws,2013-03-10 11:00:00,
2013-03-10 11:05:00,39.0,33.1,29.83,North,0,3.8,7.6,79,0.00,,,0.00,pywws,2013-03-10 11:05:00,
2013-03-10 11:11:00,38.8,33.2,29.82,North,0,1.6,2.2,80,0.00,,,0.00,pywws,2013-03-10 11:11:00,
2013-03-10 11:16:00,39.2,33.6,29.82,NE,45,3.1,6.9,80,0.00,,,0.00,pywws,2013-03-10 11:16:00,
2013-03-10 11:21:00,39.2,33.2,29.82,East,90,4.5,9.2,79,0.00,,,0.00,pywws,2013-03-10 11:21:00,
2013-03-10 11:26:00,39.4,33.4,29.82,NE,45,5.4,9.8,79,0.00,,,0.00,pywws,2013-03-10 11:26:00,
2013-03-10 11:31:00,39.4,33.4,29.82,North,0,3.1,9.2,79,0.00,,,0.00,pywws,2013-03-10 11:31:00,
2013-03-10 11:37:00,39.2,32.6,29.82,NNE,22,6.9,13.0,77,0.00,,,0.00,pywws,2013-03-10 11:37:00,
2013-03-10 11:42:00,39.2,32.6,29.82,NE,45,4.5,8.3,77,0.00,,,0.00,pywws,2013-03-10 11:42:00,
2013-03-10 11:47:00,39.4,33.1,29.82,East,90,3.1,6.9,78,0.00,,,0.00,pywws,2013-03-10 11:47:00,
2013-03-10 11:52:00,39.4,32.8,29.82,NE,45,3.1,7.6,77,0.00,,,0.00,pywws,2013-03-10 11:52:00,
2013-03-10 11:57:00,39.4,33.1,29.82,NE,45,1.6,3.1,78,0.00,,,0.00,pywws,2013-03-10 11:57:00,
2013-03-10 12:02:00,39.7,33.1,29.82,NE,45,3.8,7.6,77,0.00,,,0.00,pywws,2013-03-10 12:02:00,
2013-03-10 12:08:00,39.9,33.0,29.82,NE,45,3.8,8.3,76,0.00,,,0.00,pywws,2013-03-10 12:08:00,
2013-03-10 12:13:00,39.9,33.0,29.82,North,0,5.4,13.0,76,0.00,,,0.00,pywws,2013-03-10 12:13:00,
2013-03-10 12:18:00,39.7,33.1,29.82,North,0,2.2,3.8,77,0.00,,,0.00,pywws,2013-03-10 12:18:00,
2013-03-10 12:23:00,39.6,32.6,29.82,NE,45,7.6,13.6,76,0.00,,,0.00,pywws,2013-03-10 12:23:00,
2013-03-10 12:29:00,39.6,32.6,29.81,East,90,5.4,9.2,76,0.00,,,0.00,pywws,2013-03-10 12:29:00,
2013-03-10 12:34:00,39.2,32.3,29.82,NE,45,6.9,12.1,76,0.00,,,0.00,pywws,2013-03-10 12:34:00,
2013-03-10 12:39:00,39.0,32.1,29.82,North,0,6.9,15.2,76,0.00,,,0.00,pywws,2013-03-10 12:39:00,
2013-03-10 12:44:00,39.0,32.4,29.82,NE,45,6.0,11.4,77,0.00,,,0.00,pywws,2013-03-10 12:44:00,
2013-03-10 12:49:00,39.2,32.6,29.82,ESE,112,2.2,5.4,77,0.00,,,0.00,pywws,2013-03-10 12:49:00,
2013-03-10 12:54:00,39.2,32.6,29.82,SE,135,3.8,9.2,77,0.00,,,0.00,pywws,2013-03-10 12:54:00,
2013-03-10 12:59:00,39.2,32.3,29.82,North,0,5.4,11.4,76,0.00,,,0.00,pywws,2013-03-10 12:59:00,
2013-03-10 13:05:00,39.0,32.1,29.82,WSW,248,4.5,10.7,76,0.00,,,0.00,pywws,2013-03-10 13:05:00,
2013-03-10 13:10:00,38.8,32.3,29.82,NE,45,3.8,8.3,77,0.00,,,0.00,pywws,2013-03-10 13:10:00,
2013-03-10 13:15:00,38.8,32.3,29.82,NE,45,3.1,6.0,77,0.00,,,0.00,pywws,2013-03-10 13:15:00,
2013-03-10 13:21:00,38.8,32.3,29.82,SE,135,4.5,9.8,77,0.00,,,0.00,pywws,2013-03-10 13:21:00,
2013-03-10 13:26:00,38.7,32.1,29.82,NE,45,4.5,9.2,77,0.00,,,0.00,pywws,2013-03-10 13:26:00,
2013-03-10 13:31:00,38.5,32.2,29.82,NNE,22,4.5,6.9,78,0.00,,,0.00,pywws,2013-03-10 13:31:00,
2013-03-10 13:37:00,38.5,32.2,29.82,ENE,68,2.2,8.3,78,0.00,,,0.00,pywws,2013-03-10 13:37:00,
2013-03-10 13:42:00,38.7,32.4,29.82,East,90,4.5,7.6,78,0.00,,,0.00,pywws,2013-03-10 13:42:00,
2013-03-10 13:47:00,38.3,32.4,29.82,North,0,4.5,9.8,79,0.00,,,0.00,pywws,2013-03-10 13:47:00,
2013-03-10 13:53:00,38.1,32.2,29.82,East,90,3.1,8.3,79,0.00,,,0.00,pywws,2013-03-10 13:53:00,
2013-03-10 13:58:00,38.1,32.2,29.82,NE,45,3.8,8.3,79,0.00,,,0.00,pywws,2013-03-10 13:58:00,
2013-03-10 14:03:00,37.9,31.7,29.82,ENE,68,4.5,9.8,78,0.00,,,0.00,pywws,2013-03-10 14:03:00,
2013-03-10 14:08:00,37.8,31.5,29.83,SE,135,3.1,7.6,78,0.00,,,0.00,pywws,2013-03-10 14:08:00,
2013-03-10 14:13:00,37.8,31.8,29.83,North,0,3.1,8.3,79,0.00,,,0.00,pywws,2013-03-10 14:13:00,
2013-03-10 14:18:00,37.8,31.5,29.83,North,0,2.2,6.0,78,0.00,,,0.00,pywws,2013-03-10 14:18:00,
2013-03-10 14:23:00,37.8,31.8,29.83,NNE,22,3.8,6.9,79,0.00,,,0.00,pywws,2013-03-10 14:23:00,
2013-03-10 14:28:00,37.8,31.8,29.83,NNE,22,3.8,6.9,79,0.00,,,0.00,pywws,2013-03-10 14:28:00,
2013-03-10 14:33:00,37.6,32.0,29.83,North,0,4.5,7.6,80,0.00,,,0.00,pywws,2013-03-10 14:33:00,
2013-03-10 14:38:00,37.4,31.8,29.83,East,90,4.5,9.2,80,0.00,,,0.00,pywws,2013-03-10 14:38:00,
2013-03-10 14:44:00,37.2,31.9,29.83,North,0,6.0,11.4,81,0.00,,,0.00,pywws,2013-03-10 14:44:00,
2013-03-10 14:49:00,37.0,31.8,29.83,East,90,3.8,7.6,81,0.00,,,0.00,pywws,2013-03-10 14:49:00,
2013-03-10 14:54:00,36.9,31.6,29.83,East,90,4.5,7.6,81,0.00,,,0.00,pywws,2013-03-10 14:54:00,
2013-03-10 15:00:00,36.9,31.3,29.83,ESE,112,4.5,9.2,80,0.00,,,0.00,pywws,2013-03-10 15:00:00,
2013-03-10 15:05:00,36.9,31.6,29.83,NE,45,3.1,5.4,81,0.00,,,0.00,pywws,2013-03-10 15:05:00,
2013-03-10 15:10:00,37.0,31.1,29.83,NE,45,5.4,12.1,79,0.00,,,0.00,pywws,2013-03-10 15:10:00,
2013-03-10 15:15:00,37.0,31.1,29.83,NE,45,6.9,13.0,79,0.00,,,0.00,pywws,2013-03-10 15:15:00,
2013-03-10 15:21:00,36.9,31.0,29.83,NE,45,6.0,10.7,79,0.00,,,0.00,pywws,2013-03-10 15:21:00,
2013-03-10 15:26:00,36.9,31.0,29.83,East,90,4.5,7.6,79,0.00,,,0.00,pywws,2013-03-10 15:26:00,
2013-03-10 15:31:00,36.9,31.0,29.83,SE,135,3.8,9.8,79,0.00,,,0.00,pywws,2013-03-10 15:31:00,
2013-03-10 15:36:00,36.9,31.0,29.83,North,0,4.5,10.7,79,0.00,,,0.00,pywws,2013-03-10 15:36:00,
2013-03-10 15:41:00,36.7,30.5,29.83,NE,45,6.0,9.2,78,0.00,,,0.00,pywws,2013-03-10 15:41:00,
2013-03-10 15:46:00,36.7,30.8,29.83,NE,45,3.8,8.3,79,0.00,,,0.00,pywws,2013-03-10 15:46:00,
2013-03-10 15:51:00,36.7,30.8,29.83,NE,45,4.5,8.3,79,0.00,,,0.00,pywws,2013-03-10 15:51:00,
2013-03-10 15:56:00,36.7,30.5,29.83,NE,45,4.5,9.8,78,0.00,,,0.00,pywws,2013-03-10 15:56:00,
2013-03-10 16:01:00,36.7,30.5,29.83,West,270,2.2,6.9,78,0.00,,,0.00,pywws,2013-03-10 16:01:00,
2013-03-10 16:06:00,36.7,30.5,29.83,West,270,2.2,6.9,78,0.00,,,0.00,pywws,2013-03-10 16:06:00,
2013-03-10 16:12:00,36.7,30.5,29.83,West,270,2.2,6.9,78,0.00,,,0.00,pywws,2013-03-10 16:12:00,
2013-03-10 16:17:00,36.5,30.3,29.83,North,0,4.5,13.0,78,0.00,,,0.00,pywws,2013-03-10 16:17:00,
2013-03-10 16:22:00,36.3,30.1,29.83,North,0,4.5,9.8,78,0.00,,,0.00,pywws,2013-03-10 16:22:00,
2013-03-10 16:27:00,36.3,30.1,29.84,NE,45,6.9,13.0,78,0.00,,,0.00,pywws,2013-03-10 16:27:00,
2013-03-10 16:32:00,36.3,30.1,29.84,West,270,3.1,6.9,78,0.00,,,0.00,pywws,2013-03-10 16:32:00,
2013-03-10 16:37:00,36.1,30.0,29.84,North,0,4.5,9.8,78,0.00,,,0.00,pywws,2013-03-10 16:37:00,
2013-03-10 16:42:00,36.3,30.4,29.84,North,0,2.2,4.5,79,0.00,,,0.00,pywws,2013-03-10 16:42:00,
2013-03-10 16:47:00,36.1,30.0,29.84,NE,45,6.9,10.7,78,0.00,,,0.00,pywws,2013-03-10 16:47:00,
2013-03-10 16:52:00,36.1,30.0,29.84,NE,45,6.9,10.7,78,0.00,,,0.00,pywws,2013-03-10 16:52:00,
2013-03-10 16:57:00,36.1,30.0,29.84,NE,45,3.8,7.6,78,0.00,,,0.00,pywws,2013-03-10 16:57:00,
2013-03-10 17:02:00,36.1,30.0,29.84,NE,45,6.9,14.5,78,0.00,,,0.00,pywws,2013-03-10 17:02:00,
2013-03-10 17:07:00,36.1,30.0,29.84,NE,45,1.6,4.5,78,0.00,,,0.00,pywws,2013-03-10 17:07:00,
2013-03-10 17:12:00,36.1,29.6,29.84,NE,45,6.9,13.0,77,0.00,,,0.00,pywws,2013-03-10 17:12:00,
2013-03-10 17:18:00,36.1,29.6,29.84,North,0,4.5,6.9,77,0.00,,,0.00,pywws,2013-03-10 17:18:00,
2013-03-10 17:23:00,36.1,29.6,29.84,NNE,22,2.2,6.0,77,0.00,,,0.00,pywws,2013-03-10 17:23:00,
2013-03-10 17:28:00,36.1,29.6,29.84,NE,45,4.5,9.8,77,0.00,,,0.00,pywws,2013-03-10 17:28:00,
2013-03-10 17:33:00,36.1,29.3,29.84,NE,45,6.0,12.1,76,0.00,,,0.00,pywws,2013-03-10 17:33:00,
2013-03-10 17:38:00,36.1,29.3,29.84,NE,45,6.0,11.4,76,0.00,,,0.00,pywws,2013-03-10 17:38:00,
2013-03-10 17:43:00,36.0,29.1,29.84,NE,45,7.6,13.0,76,0.00,,,0.00,pywws,2013-03-10 17:43:00,
2013-03-10 17:49:00,36.0,29.1,29.84,NE,45,6.0,9.2,76,0.00,,,0.00,pywws,2013-03-10 17:49:00,
2013-03-10 17:54:00,36.0,28.8,29.84,SE,135,2.2,10.7,75,0.00,,,0.00,pywws,2013-03-10 17:54:00,
2013-03-10 17:59:00,36.0,28.8,29.84,SE,135,2.2,10.7,75,0.00,,,0.00,pywws,2013-03-10 17:59:00,
2013-03-10 18:04:00,36.0,29.1,29.84,NW,315,3.1,8.3,76,0.00,,,0.00,pywws,2013-03-10 18:04:00,
2013-03-10 18:09:00,36.0,29.1,29.84,NE,45,4.5,9.8,76,0.00,,,0.00,pywws,2013-03-10 18:09:00,
2013-03-10 18:14:00,35.8,29.0,29.84,NE,45,3.8,6.0,76,0.00,,,0.00,pywws,2013-03-10 18:14:00,
2013-03-10 18:19:00,35.8,29.0,29.84,NE,45,3.8,6.0,76,0.00,,,0.00,pywws,2013-03-10 18:19:00,
2013-03-10 18:24:00,35.8,29.0,29.84,NNE,22,3.8,6.9,76,0.00,,,0.00,pywws,2013-03-10 18:24:00,
2013-03-10 18:29:00,35.8,29.0,29.84,NE,45,4.5,9.8,76,0.00,,,0.00,pywws,2013-03-10 18:29:00,
2013-03-10 18:34:00,35.8,29.3,29.84,East,90,3.1,7.6,77,0.00,,,0.00,pywws,2013-03-10 18:34:00,
2013-03-10 18:39:00,35.8,29.0,29.84,East,90,5.4,9.2,76,0.00,,,0.00,pywws,2013-03-10 18:39:00,
2013-03-10 18:45:00,35.8,29.0,29.85,North,0,4.5,12.1,76,0.00,,,0.00,pywws,2013-03-10 18:45:00,
2013-03-10 18:50:00,35.6,28.8,29.85,NE,45,6.0,13.6,76,0.00,,,0.00,pywws,2013-03-10 18:50:00,
2013-03-10 18:55:00,35.6,28.8,29.85,NE,45,3.1,6.0,76,0.00,,,0.00,pywws,2013-03-10 18:55:00,
2013-03-10 19:00:00,35.6,28.8,29.85,South,180,3.1,8.3,76,0.00,,,0.00,pywws,2013-03-10 19:00:00,
2013-03-10 19:05:00,35.6,28.8,29.85,South,180,3.1,8.3,76,0.00,,,0.00,pywws,2013-03-10 19:05:00,
2013-03-10 19:11:00,35.6,28.8,29.85,NE,45,2.2,6.0,76,0.00,,,0.00,pywws,2013-03-10 19:11:00,
2013-03-10 19:16:00,35.6,28.8,29.85,SE,135,6.0,13.6,76,0.00,,,0.00,pywws,2013-03-10 19:16:00,
2013-03-10 19:21:00,35.4,28.6,29.85,East,90,3.8,14.5,76,0.00,,,0.00,pywws,2013-03-10 19:21:00,
2013-03-10 19:26:00,35.4,28.3,29.85,ESE,112,3.1,6.9,75,0.00,,,0.00,pywws,2013-03-10 19:26:00,
2013-03-10 19:31:00,35.4,28.6,29.85,NNW,338,2.2,3.8,76,0.00,,,0.00,pywws,2013-03-10 19:31:00,
2013-03-10 19:36:00,35.4,28.6,29.85,NE,45,5.4,10.7,76,0.00,,,0.00,pywws,2013-03-10 19:36:00,
2013-03-10 19:41:00,35.2,28.4,29.85,NE,45,3.8,7.6,76,0.00,,,0.00,pywws,2013-03-10 19:41:00,
2013-03-10 19:46:00,35.2,28.4,29.85,NE,45,6.9,11.4,76,0.00,,,0.00,pywws,2013-03-10 19:46:00,
2013-03-10 19:52:00,35.2,28.4,29.85,NE,45,2.2,5.4,76,0.00,,,0.00,pywws,2013-03-10 19:52:00,
2013-03-10 19:57:00,35.1,28.3,29.85,North,0,6.0,13.0,76,0.00,,,0.00,pywws,2013-03-10 19:57:00,
2013-03-10 20:02:00,35.1,28.3,29.85,NNE,22,3.8,6.0,76,0.00,,,0.00,pywws,2013-03-10 20:02:00,
2013-03-10 20:07:00,35.1,28.3,29.86,NE,45,5.4,8.3,76,0.00,,,0.00,pywws,2013-03-10 20:07:00,
2013-03-10 20:12:00,35.1,28.3,29.85,NE,45,5.4,10.7,76,0.00,,,0.00,pywws,2013-03-10 20:12:00,
2013-03-10 20:17:00,34.9,28.1,29.85,NE,45,4.5,9.2,76,0.00,,,0.00,pywws,2013-03-10 20:17:00,
2013-03-10 20:23:00,34.9,28.1,29.85,NE,45,3.8,8.3,76,0.00,,,0.00,pywws,2013-03-10 20:23:00,
2013-03-10 20:28:00,34.9,27.8,29.86,SE,135,3.1,5.4,75,0.00,,,0.00,pywws,2013-03-10 20:28:00,
2013-03-10 20:33:00,34.9,27.8,29.86,SE,135,6.0,12.1,75,0.00,,,0.00,pywws,2013-03-10 20:33:00,
2013-03-10 20:38:00,34.9,27.8,29.86,NE,45,2.2,6.9,75,0.00,,,0.00,pywws,2013-03-10 20:38:00,
2013-03-10 20:43:00,34.9,27.8,29.86,NE,45,3.8,9.8,75,0.00,,,0.00,pywws,2013-03-10 20:43:00,
2013-03-10 20:49:00,34.9,27.8,29.86,NW,315,2.2,6.9,75,0.00,,,0.00,pywws,2013-03-10 20:49:00,
2013-03-10 20:54:00,34.7,27.6,29.86,North,0,3.8,6.9,75,0.00,,,0.00,pywws,2013-03-10 20:54:00,
2013-03-10 20:59:00,34.7,27.6,29.86,WNW,292,3.8,7.6,75,0.00,,,0.00,pywws,2013-03-10 20:59:00,
2013-03-10 21:04:00,34.7,27.6,29.87,WNW,292,3.8,7.6,75,0.00,,,0.00,pywws,2013-03-10 21:04:00,
2013-03-10 21:09:00,34.7,27.9,29.87,North,0,3.8,7.6,76,0.00,,,0.00,pywws,2013-03-10 21:09:00,
2013-03-10 21:14:00,34.5,27.7,29.86,North,0,4.5,10.7,76,0.00,,,0.00,pywws,2013-03-10 21:14:00,
2013-03-10 21:19:00,34.5,27.7,29.86,SE,135,3.8,9.8,76,0.00,,,0.00,pywws,2013-03-10 21:19:00,
2013-03-10 21:25:00,34.5,27.7,29.86,East,90,3.1,7.6,76,0.00,,,0.00,pywws,2013-03-10 21:25:00,
2013-03-10 21:30:00,34.5,27.7,29.86,NE,45,6.9,14.5,76,0.00,,,0.00,pywws,2013-03-10 21:30:00,
2013-03-10 21:35:00,34.5,27.7,29.86,North,0,3.8,11.4,76,0.00,,,0.00,pywws,2013-03-10 21:35:00,
2013-03-10 21:41:00,34.3,27.6,29.86,East,90,4.5,7.6,76,0.00,,,0.00,pywws,2013-03-10 21:41:00,
2013-03-10 21:46:00,34.3,27.9,29.87,NE,45,6.0,12.1,77,0.00,,,0.00,pywws,2013-03-10 21:46:00,
2013-03-10 21:51:00,34.3,28.2,29.86,East,90,3.8,6.9,78,0.00,,,0.00,pywws,2013-03-10 21:51:00,
2013-03-10 21:56:00,34.3,28.2,29.86,North,0,4.5,6.9,78,0.00,,,0.00,pywws,2013-03-10 21:56:00,
2013-03-10 22:02:00,34.3,28.2,29.86,NE,45,5.4,8.3,78,0.00,,,0.00,pywws,2013-03-10 22:02:00,
2013-03-10 22:07:00,34.3,28.2,29.85,NE,45,5.4,8.3,78,0.00,,,0.00,pywws,2013-03-10 22:07:00,
2013-03-10 22:12:00,34.3,28.2,29.86,North,0,7.6,16.8,78,0.00,,,0.00,pywws,2013-03-10 22:12:00,
2013-03-10 22:17:00,34.3,28.2,29.86,North,0,7.6,16.8,78,0.00,,,0.00,pywws,2013-03-10 22:17:00,
2013-03-10 22:22:00,34.3,28.5,29.85,NE,45,3.8,8.3,79,0.00,,,0.00,pywws,2013-03-10 22:22:00,
2013-03-10 22:28:00,34.3,28.5,29.85,NE,45,6.0,9.8,79,0.00,,,0.00,pywws,2013-03-10 22:28:00,
2013-03-10 22:33:00,34.3,28.2,29.85,NE,45,3.8,7.6,78,0.00,,,0.00,pywws,2013-03-10 22:33:00,
2013-03-10 22:38:00,34.3,28.2,29.85,NE,45,4.5,8.3,78,0.00,,,0.00,pywws,2013-03-10 22:38:00,
2013-03-10 22:44:00,34.3,28.2,29.85,NW,315,3.8,10.7,78,0.00,,,0.00,pywws,2013-03-10 22:44:00,
2013-03-10 22:49:00,34.3,28.2,29.85,North,0,0.7,3.1,78,0.00,,,0.00,pywws,2013-03-10 22:49:00,
2013-03-10 22:54:00,34.3,28.2,29.85,NE,45,3.8,7.6,78,0.00,,,0.00,pywws,2013-03-10 22:54:00,
2013-03-10 22:59:00,34.3,28.2,29.85,SE,135,4.5,9.8,78,0.00,,,0.00,pywws,2013-03-10 22:59:00,
2013-03-10 23:04:00,34.3,28.2,29.85,SE,135,4.5,9.8,78,0.00,,,0.00,pywws,2013-03-10 23:04:00,
2013-03-10 23:09:00,34.3,28.2,29.85,North,0,6.0,13.0,78,0.00,,,0.00,pywws,2013-03-10 23:09:00,
2013-03-10 23:15:00,34.3,28.2,29.85,NE,45,3.8,7.6,78,0.00,,,0.00,pywws,2013-03-10 23:15:00,
2013-03-10 23:20:00,34.3,28.2,29.85,NE,45,3.8,6.0,78,0.00,,,0.00,pywws,2013-03-10 23:20:00,
2013-03-10 23:25:00,34.3,28.2,29.85,NNW,338,6.0,10.7,78,0.00,,,0.00,pywws,2013-03-10 23:25:00,
2013-03-10 23:30:00,34.3,28.2,29.85,East,90,6.9,13.0,78,0.00,,,0.00,pywws,2013-03-10 23:30:00,
2013-03-10 23:35:00,34.2,28.3,29.85,North,0,2.2,5.4,79,0.00,,,0.00,pywws,2013-03-10 23:35:00,
2013-03-10 23:41:00,34.2,28.3,29.85,NE,45,3.1,6.9,79,0.00,,,0.00,pywws,2013-03-10 23:41:00,
2013-03-10 23:46:00,34.2,28.3,29.85,NE,45,5.4,11.4,79,0.00,,,0.00,pywws,2013-03-10 23:46:00,
2013-03-10 23:51:00,34.2,28.3,29.85,NE,45,6.0,10.7,79,0.00,,,0.00,pywws,2013-03-10 23:51:00,
2013-03-10 23:56:00,34.2,28.3,29.85,NE,45,6.0,10.7,79,0.00,,,0.00,pywws,2013-03-10 23:56:00,